�������l�o���
Date,Time,MP-1(��Sv/h),MP-2(��Sv/h),MP-3(��Sv/h),MP-4(��Sv/h),MP-5(��Sv/h),MP-6(��Sv/h),MP-7(��Sv/h),����,����(m/s),���J
2021/01/16,00:00,0.177,0.158,0.254,0.242,0.239,0.140,0.086,-,CALM,��
2021/01/16,00:10,0.175,0.158,0.254,0.241,0.237,0.140,0.086,�쐼,1.7,��
2021/01/16,00:20,0.176,0.158,0.253,0.242,0.238,0.140,0.085,��쐼,2.5,��
2021/01/16,00:30,0.175,0.158,0.255,0.242,0.238,0.140,0.085,��쐼,2.8,��
2021/01/16,00:40,0.176,0.158,0.255,0.241,0.238,0.141,0.085,�쐼,1.6,��
2021/01/16,00:50,0.176,0.158,0.255,0.242,0.238,0.140,0.085,�쐼,2.0,��
2021/01/16,01:00,0.176,0.158,0.256,0.243,0.238,0.141,0.085,�쐼,1.4,��
2021/01/16,01:10,0.175,0.158,0.255,0.242,0.238,0.140,0.085,-,CALM,��
2021/01/16,01:20,0.176,0.158,0.255,0.241,0.239,0.142,0.085,-,CALM,��
2021/01/16,01:30,0.176,0.158,0.256,0.241,0.239,0.141,0.086,�쐼,1.1,��
2021/01/16,01:40,0.177,0.159,0.254,0.243,0.238,0.140,0.085,��쐼,1.5,��
2021/01/16,01:50,0.177,0.158,0.255,0.242,0.239,0.140,0.086,��,2.3,��
2021/01/16,02:00,0.176,0.158,0.255,0.243,0.237,0.140,0.087,��쐼,1.8,��
2021/01/16,02:10,0.176,0.158,0.255,0.242,0.237,0.141,0.085,�쐼,1.9,��
2021/01/16,02:20,0.177,0.158,0.255,0.241,0.239,0.140,0.086,�쐼,3.1,��
2021/01/16,02:30,0.176,0.158,0.254,0.242,0.239,0.141,0.085,���쐼,2.7,��
2021/01/16,02:40,0.177,0.158,0.256,0.243,0.239,0.142,0.085,��,2.5,��
2021/01/16,02:50,0.176,0.158,0.255,0.242,0.236,0.141,0.085,��,2.6,��
2021/01/16,03:00,0.176,0.158,0.255,0.242,0.238,0.140,0.085,���쐼,3.2,��
2021/01/16,03:10,0.176,0.159,0.254,0.242,0.237,0.141,0.085,�쐼,4.9,��
2021/01/16,03:20,0.177,0.158,0.254,0.242,0.238,0.140,0.085,��쐼,1.3,��
2021/01/16,03:30,0.175,0.158,0.254,0.241,0.237,0.141,0.086,��쐼,2.5,��
2021/01/16,03:40,0.176,0.157,0.254,0.241,0.237,0.141,0.085,��쐼,3.4,��
2021/01/16,03:50,0.176,0.157,0.254,0.243,0.237,0.140,0.085,��쐼,2.1,��
2021/01/16,04:00,0.176,0.158,0.254,0.242,0.239,0.141,0.085,��쐼,4.2,��
2021/01/16,04:10,0.178,0.158,0.254,0.240,0.238,0.140,0.086,�쐼,6.0,��
2021/01/16,04:20,0.176,0.158,0.254,0.241,0.238,0.141,0.085,��쐼,5.5,��
2021/01/16,04:30,0.176,0.158,0.254,0.242,0.238,0.141,0.086,��쐼,3.6,��
2021/01/16,04:40,0.177,0.158,0.254,0.242,0.238,0.140,0.085,��쐼,3.7,��
2021/01/16,04:50,0.176,0.159,0.255,0.241,0.238,0.140,0.085,��쐼,4.0,��
2021/01/16,05:00,0.176,0.158,0.253,0.242,0.238,0.140,0.085,�쐼,5.8,��
2021/01/16,05:10,0.175,0.157,0.254,0.241,0.238,0.140,0.085,�쐼,7.3,��
2021/01/16,05:20,0.175,0.158,0.254,0.242,0.237,0.139,0.085,�쐼,7.9,��
2021/01/16,05:30,0.176,0.158,0.253,0.242,0.237,0.141,0.084,�쐼,8.4,��
2021/01/16,05:40,0.176,0.159,0.254,0.242,0.237,0.140,0.086,��쐼,5.9,��
2021/01/16,05:50,0.175,0.158,0.253,0.241,0.238,0.140,0.085,��쐼,4.5,��
2021/01/16,06:00,0.177,0.157,0.255,0.242,0.236,0.140,0.085,��,5.2,��
2021/01/16,06:10,0.177,0.158,0.254,0.241,0.236,0.141,0.085,��,4.4,��
2021/01/16,06:20,0.177,0.158,0.254,0.241,0.238,0.140,0.084,��,4.3,��
2021/01/16,06:30,0.176,0.157,0.253,0.241,0.238,0.139,0.086,��,4.9,��
2021/01/16,06:40,0.175,0.157,0.255,0.241,0.236,0.139,0.085,��,4.4,��
2021/01/16,06:50,0.176,0.158,0.254,0.241,0.238,0.140,0.085,��,5.3,��
2021/01/16,07:00,0.176,0.158,0.253,0.242,0.237,0.139,0.085,��,5.5,��
2021/01/16,07:10,0.176,0.157,0.253,0.241,0.238,0.139,0.085,��,5.3,��
2021/01/16,07:20,0.176,0.157,0.254,0.241,0.238,0.140,0.084,��,5.0,��
2021/01/16,07:30,0.176,0.158,0.255,0.241,0.238,0.140,0.085,��,4.4,��
2021/01/16,07:40,0.176,0.158,0.254,0.241,0.238,0.140,0.085,��,4.7,��
2021/01/16,07:50,0.176,0.157,0.254,0.240,0.237,0.139,0.085,��쓌,5.6,��
2021/01/16,08:00,0.175,0.157,0.253,0.242,0.238,0.140,0.085,��,5.5,��
2021/01/16,08:10,0.176,0.158,0.254,0.241,0.238,0.140,0.085,��,5.1,��
2021/01/16,08:20,0.175,0.158,0.253,0.241,0.237,0.140,0.084,��쓌,7.0,��
2021/01/16,08:30,0.176,0.158,0.253,0.240,0.237,0.140,0.085,��,6.5,��
2021/01/16,08:40,0.176,0.158,0.253,0.241,0.239,0.140,0.086,��,5.9,��
2021/01/16,08:50,0.176,0.158,0.255,0.241,0.238,0.141,0.085,��쓌,6.2,��
2021/01/16,09:00,0.176,0.157,0.253,0.241,0.238,0.140,0.085,��,4.4,��
2021/01/16,09:10,0.176,0.158,0.254,0.242,0.239,0.140,0.086,��,4.3,��
2021/01/16,09:20,0.176,0.159,0.255,0.241,0.239,0.140,0.085,��쓌,5.7,��
2021/01/16,09:30,0.177,0.159,0.255,0.241,0.239,0.140,0.085,��쓌,5.3,��
2021/01/16,09:40,0.176,0.158,0.253,0.241,0.239,0.140,0.085,��쓌,4.9,��
2021/01/16,09:50,0.176,0.157,0.254,0.240,0.237,0.140,0.085,��,4.3,��
2021/01/16,10:00,0.176,0.157,0.255,0.242,0.238,0.140,0.085,��,3.8,��
2021/01/16,10:10,0.175,0.157,0.253,0.241,0.238,0.140,0.085,��,3.7,��
2021/01/16,10:20,0.176,0.158,0.254,0.241,0.238,0.141,0.085,��,3.8,��
2021/01/16,10:30,0.175,0.158,0.255,0.241,0.238,0.140,0.086,��,3.1,��
2021/01/16,10:40,0.176,0.158,0.253,0.242,0.237,0.141,0.086,��쐼,2.2,��
2021/01/16,10:50,0.175,0.157,0.252,0.242,0.239,0.140,0.085,���k��,4.3,��
2021/01/16,11:00,0.175,0.158,0.252,0.242,0.237,0.140,0.085,���k��,7.7,��
2021/01/16,11:10,0.175,0.157,0.253,0.241,0.237,0.140,0.085,���k��,6.7,��
2021/01/16,11:20,0.176,0.157,0.253,0.241,0.237,0.140,0.086,���k��,3.1,��
2021/01/16,11:30,0.175,0.159,0.255,0.241,0.238,0.140,0.084,���k��,5.2,��
2021/01/16,11:40,0.176,0.158,0.253,0.240,0.237,0.141,0.085,�k��,9.0,��
2021/01/16,11:50,0.177,0.158,0.253,0.243,0.239,0.140,0.085,�k��,6.6,��
2021/01/16,12:00,0.176,0.158,0.254,0.241,0.237,0.140,0.084,�k��,5.9,��
2021/01/16,12:10,0.177,0.158,0.255,0.243,0.239,0.140,0.085,�k��,2.5,��
2021/01/16,12:20,0.176,0.157,0.256,0.242,0.237,0.140,0.084,�k��,2.8,��
2021/01/16,12:30,0.176,0.159,0.255,0.242,0.239,0.140,0.085,�k,1.9,��
2021/01/16,12:40,0.176,0.158,0.255,0.242,0.238,0.140,0.085,�k,1.0,��
2021/01/16,12:50,0.175,0.158,0.254,0.241,0.239,0.140,0.085,��,0.7,��
2021/01/16,13:00,0.176,0.158,0.253,0.242,0.238,0.140,0.085,��,3.0,��
2021/01/16,13:10,0.175,0.158,0.254,0.241,0.238,0.139,0.085,��,6.5,��
2021/01/16,13:20,0.176,0.159,0.254,0.240,0.239,0.140,0.084,��,4.8,��
2021/01/16,13:30,0.176,0.158,0.254,0.242,0.238,0.140,0.084,��,3.4,�L
2021/01/16,13:40,0.176,0.158,0.255,0.241,0.241,0.140,0.085,��,5.0,�L
2021/01/16,13:50,0.176,0.157,0.254,0.243,0.237,0.141,0.086,���k��,3.6,��
2021/01/16,14:00,0.176,0.158,0.255,0.242,0.240,0.141,0.086,���k��,4.5,��
2021/01/16,14:10,0.176,0.157,0.255,0.242,0.237,0.140,0.085,���k��,6.3,��
2021/01/16,14:20,0.177,0.158,0.254,0.243,0.238,0.141,0.086,��,7.6,��
2021/01/16,14:30,0.176,0.158,0.256,0.241,0.239,0.141,0.085,���k��,5.2,��
2021/01/16,14:40,0.176,0.159,0.255,0.243,0.238,0.141,0.085,���쐼,1.2,��
2021/01/16,14:50,0.175,0.159,0.253,0.243,0.239,0.142,0.085,-,CALM,��
2021/01/16,15:00,0.177,0.158,0.256,0.240,0.238,0.140,0.085,�k��,1.3,��
2021/01/16,15:10,0.176,0.158,0.254,0.243,0.239,0.142,0.085,�k��,6.1,��
2021/01/16,15:20,0.175,0.158,0.255,0.241,0.240,0.141,0.086,�k��,6.7,��
2021/01/16,15:30,0.178,0.158,0.256,0.243,0.239,0.142,0.085,�k�k��,3.4,��
2021/01/16,15:40,0.177,0.158,0.254,0.243,0.238,0.141,0.085,�k��,1.8,��
2021/01/16,15:50,0.175,0.159,0.255,0.242,0.239,0.141,0.085,���k��,3.4,��
2021/01/16,16:00,0.178,0.159,0.255,0.241,0.239,0.141,0.085,���k��,3.9,�L
2021/01/16,16:10,0.176,0.158,0.254,0.243,0.241,0.141,0.086,���k��,5.9,�L
2021/01/16,16:20,0.177,0.159,0.256,0.243,0.239,0.141,0.086,�k��,4.3,�L
2021/01/16,16:30,0.177,0.159,0.258,0.244,0.242,0.142,0.086,�k��,3.5,�L
2021/01/16,16:40,0.178,0.160,0.257,0.245,0.242,0.143,0.088,�k��,5.0,�L
2021/01/16,16:50,0.179,0.161,0.257,0.245,0.242,0.145,0.088,�k��,6.0,�L
2021/01/16,17:00,0.181,0.163,0.261,0.246,0.242,0.145,0.089,�k��,5.3,�L
2021/01/16,17:10,0.182,0.165,0.261,0.250,0.246,0.147,0.092,���k��,7.5,�L
2021/01/16,17:20,0.186,0.169,0.266,0.252,0.250,0.151,0.096,�k��,7.9,�L
2021/01/16,17:30,0.187,0.171,0.267,0.254,0.250,0.153,0.098,�k��,5.3,�L
2021/01/16,17:40,0.186,0.170,0.267,0.254,0.251,0.154,0.099,�k�k��,5.0,��
2021/01/16,17:50,0.186,0.168,0.265,0.253,0.248,0.153,0.098,�k�k��,6.1,��
2021/01/16,18:00,0.185,0.168,0.263,0.251,0.248,0.150,0.096,�k��,7.0,��
2021/01/16,18:10,0.184,0.166,0.262,0.250,0.246,0.149,0.094,�k��,7.9,��
2021/01/16,18:20,0.183,0.164,0.261,0.248,0.246,0.148,0.092,�k�k��,7.9,��
2021/01/16,18:30,0.181,0.164,0.262,0.247,0.244,0.148,0.092,�k�k��,8.5,��
2021/01/16,18:40,0.182,0.163,0.260,0.246,0.243,0.147,0.090,�k�k��,7.7,��
2021/01/16,18:50,0.180,0.162,0.259,0.246,0.243,0.144,0.090,�k�k��,9.2,��
2021/01/16,19:00,0.179,0.161,0.259,0.246,0.242,0.145,0.089,�k�k��,9.3,��
2021/01/16,19:10,0.179,0.161,0.258,0.246,0.241,0.144,0.088,�k�k��,8.4,��
2021/01/16,19:20,0.179,0.161,0.258,0.245,0.240,0.143,0.088,�k�k��,6.2,��
2021/01/16,19:30,0.180,0.160,0.258,0.244,0.241,0.143,0.088,�k�k��,7.3,��
2021/01/16,19:40,0.178,0.159,0.257,0.244,0.240,0.143,0.087,�k,7.9,��
2021/01/16,19:50,0.179,0.161,0.255,0.243,0.240,0.142,0.087,�k�k��,5.5,��
2021/01/16,20:00,0.178,0.159,0.256,0.242,0.240,0.143,0.086,�k,5.2,��
2021/01/16,20:10,0.179,0.160,0.257,0.244,0.240,0.142,0.087,�k,4.7,��
2021/01/16,20:20,0.178,0.160,0.257,0.243,0.239,0.141,0.086,�k,5.3,��
2021/01/16,20:30,0.177,0.161,0.256,0.242,0.240,0.140,0.086,�k�k��,5.6,��
2021/01/16,20:40,0.177,0.159,0.256,0.244,0.240,0.142,0.086,�k�k��,5.8,��
2021/01/16,20:50,0.179,0.160,0.257,0.244,0.239,0.141,0.086,�k�k��,4.7,��
2021/01/16,21:00,0.177,0.159,0.257,0.243,0.238,0.141,0.086,�k�k��,5.4,��
2021/01/16,21:10,0.177,0.159,0.256,0.244,0.240,0.141,0.085,�k�k��,3.7,��
2021/01/16,21:20,0.177,0.159,0.255,0.243,0.239,0.141,0.086,�k�k��,3.4,��
2021/01/16,21:30,0.178,0.159,0.255,0.242,0.240,0.140,0.086,�k�k��,4.0,��
2021/01/16,21:40,0.178,0.159,0.255,0.242,0.238,0.140,0.085,�k�k��,4.4,��
2021/01/16,21:50,0.176,0.159,0.254,0.242,0.239,0.141,0.086,�k��,5.0,��
2021/01/16,22:00,0.177,0.159,0.255,0.242,0.238,0.141,0.085,�k��,4.3,��
2021/01/16,22:10,0.177,0.159,0.254,0.243,0.238,0.141,0.085,�k��,8.2,��
2021/01/16,22:20,0.178,0.158,0.256,0.243,0.238,0.141,0.086,���k��,9.6,��
2021/01/16,22:30,0.178,0.159,0.255,0.240,0.238,0.140,0.085,���k��,12.8,��
2021/01/16,22:40,0.177,0.158,0.255,0.240,0.239,0.141,0.085,���k��,11.5,��
2021/01/16,22:50,0.176,0.159,0.254,0.242,0.239,0.141,0.085,���k��,14.0,��
2021/01/16,23:00,0.178,0.158,0.254,0.241,0.239,0.141,0.085,���k��,16.5,��
2021/01/16,23:10,0.177,0.158,0.254,0.242,0.239,0.141,0.085,���k��,16.1,��
2021/01/16,23:20,0.176,0.159,0.256,0.242,0.239,0.141,0.086,���k��,19.7,��
2021/01/16,23:30,0.177,0.158,0.253,0.242,0.238,0.140,0.085,��,17.9,��
2021/01/16,23:40,0.177,0.159,0.256,0.242,0.239,0.141,0.085,��,18.1,��
2021/01/16,23:50,0.177,0.158,0.256,0.243,0.239,0.141,0.086,���k��,20.8,��
